When you browse on this site, cookies collect data to enhance your experience and personalize the content and advertising you see.
Visit our Privacy Policy to learn more. By continuing to use the site, you agree to this use of cookies and data.
  • Em Portugal
  • Lista de países
  • Para 7 dias
  • Temperatura da água
  • Mapas de satélite
  • Mapa do tempo
  • Widgets de tempo
  • user-avatar
    Iniciar Sessão

    Previsão horária em Kitzbuel

    Hoje, 24 Março, Domingo

    Tempo Temperatura Precipitação Vento Pressão Humidade
    00:00 +5°C° 0 mm 2 m/s 682 mmHg 84%
    01:00 +5°C° 0 mm 2 m/s 681 mmHg 81%
    02:00 +5°C° 0 mm 2 m/s 681 mmHg 81%
    03:00 +4°C° 0 mm 2 m/s 681 mmHg 80%
    04:00 +4°C° 0 mm 2 m/s 681 mmHg 80%
    05:00 +4°C° 0 mm 2 m/s 681 mmHg 79%
    06:00 +4°C° 0 mm 2 m/s 681 mmHg 78%
    07:00 +5°C° 0 mm 2 m/s 681 mmHg 74%
    08:00 +9°C° 0 mm 1 m/s 681 mmHg 71%
    09:00 +11°C° 0 mm 1 m/s 681 mmHg 67%
    10:00 +13°C° 0 mm 0 m/s 681 mmHg 64%
    11:00 +15°C° 0 mm 1 m/s 681 mmHg 61%
    12:00 +15°C° 0 mm 1 m/s 680 mmHg 59%
    13:00 +16°C° 0 mm 1 m/s 680 mmHg 57%
    14:00 +16°C° 0 mm 1 m/s 680 mmHg 60%
    15:00 +15°C° 0 mm 1 m/s 679 mmHg 64%
    16:00 +14°C° 0 mm 2 m/s 679 mmHg 67%
    17:00 +12°C° 0 mm 1 m/s 678 mmHg 75%
    18:00 +10°C° 0 mm 1 m/s 678 mmHg 83%
    19:00 +7°C° 0 mm 0 m/s 678 mmHg 91%
    20:00 +8°C° 0.1 mm 1 m/s 678 mmHg 91%
    21:00 +8°C° 0.1 mm 1 m/s 678 mmHg 91%
    22:00 +8°C° 0.1 mm 1 m/s 678 mmHg 92%
    23:00 +7°C° 0.2 mm 1 m/s 678 mmHg 94%

    Amanhã, 25 Março, Segunda-feira

    Tempo Temperatura Precipitação Vento Pressão Humidade
    00:00 +6°C° 0.2 mm 1 m/s 678 mmHg 96%
    01:00 +5°C° 0.2 mm 0 m/s 678 mmHg 98%
    02:00 +6°C° 0.1 mm 1 m/s 677 mmHg 98%
    03:00 +5°C° 0.1 mm 1 m/s 677 mmHg 98%
    04:00 +5°C° 0.1 mm 1 m/s 677 mmHg 98%
    05:00 +5°C° 0.2 mm 1 m/s 677 mmHg 97%
    06:00 +5°C° 0.2 mm 1 m/s 677 mmHg 97%
    07:00 +5°C° 0.2 mm 1 m/s 677 mmHg 97%
    08:00 +5°C° 0.3 mm 1 m/s 676 mmHg 95%
    09:00 +4°C° 0.3 mm 2 m/s 676 mmHg 93%
    10:00 +5°C° 0.3 mm 2 m/s 676 mmHg 91%
    11:00 +4°C° 0.4 mm 2 m/s 675 mmHg 90%
    12:00 +4°C° 0.4 mm 2 m/s 675 mmHg 89%
    13:00 +4°C° 0.4 mm 2 m/s 675 mmHg 88%
    14:00 +3°C° 0.7 mm 2 m/s 674 mmHg 89%
    15:00 +2°C° 0.7 mm 2 m/s 674 mmHg 90%
    16:00 +2°C° 0.7 mm 2 m/s 674 mmHg 91%
    17:00 +1°C° 1.1 mm 2 m/s 674 mmHg 93%
    18:00 -1°C° 1.1 mm 2 m/s 675 mmHg 94%
    19:00 -1°C° 1.1 mm 2 m/s 675 mmHg 95%
    20:00 -2°C° 0.5 mm 2 m/s 676 mmHg 95%
    21:00 -2°C° 0.5 mm 3 m/s 677 mmHg 95%
    22:00 -4°C° 0.5 mm 3 m/s 677 mmHg 95%
    23:00 -3°C° 0.4 mm 2 m/s 678 mmHg 95%

    Depois de amanhã, 26 Março, Terça-feira

    Tempo Temperatura Precipitação Vento Pressão Humidade
    00:00 -3°C° 0.4 mm 2 m/s 678 mmHg 95%
    01:00 -3°C° 0.4 mm 2 m/s 679 mmHg 96%
    02:00 -3°C° 0.4 mm 2 m/s 679 mmHg 96%
    03:00 -2°C° 0.4 mm 1 m/s 679 mmHg 96%
    04:00 -2°C° 0.4 mm 1 m/s 679 mmHg 96%
    05:00 -2°C° 0.2 mm 1 m/s 680 mmHg 95%
    06:00 -2°C° 0.2 mm 1 m/s 680 mmHg 94%
    07:00 -2°C° 0.2 mm 1 m/s 680 mmHg 94%
    08:00 0°C° 0.1 mm 1 m/s 681 mmHg 90%
    09:00 +1°C° 0.1 mm 1 m/s 681 mmHg 86%
    10:00 +2°C° 0.1 mm 1 m/s 682 mmHg 82%
    11:00 +2°C° 0 mm 1 m/s 681 mmHg 80%
    12:00 +3°C° 0 mm 1 m/s 681 mmHg 79%
    13:00 +3°C° 0 mm 2 m/s 681 mmHg 77%
    14:00 +2°C° 0 mm 2 m/s 681 mmHg 78%
    15:00 +3°C° 0 mm 1 m/s 681 mmHg 78%
    16:00 +3°C° 0 mm 1 m/s 681 mmHg 79%
    17:00 +2°C° 0 mm 1 m/s 681 mmHg 84%
    18:00 0°C° 0 mm 1 m/s 681 mmHg 88%
    19:00 -2°C° 0 mm 0 m/s 681 mmHg 93%
    20:00 -3°C° 0 mm 0 m/s 681 mmHg 93%
    21:00 -2°C° 0 mm 1 m/s 682 mmHg 93%
    22:00 -3°C° 0 mm 1 m/s 682 mmHg 93%
    23:00 -3°C° 0 mm 1 m/s 682 mmHg 93%

    27 Março, Quarta-feira

    Tempo Temperatura Precipitação Vento Pressão Humidade
    00:00 -3°C° 0 mm 1 m/s 682 mmHg 92%
    01:00 -3°C° 0 mm 1 m/s 682 mmHg 92%
    02:00 -3°C° 0 mm 1 m/s 682 mmHg 92%
    03:00 -3°C° 0 mm 1 m/s 682 mmHg 91%
    04:00 -3°C° 0 mm 0 m/s 682 mmHg 91%
    05:00 -3°C° 0 mm 0 m/s 682 mmHg 91%
    06:00 -3°C° 0 mm 0 m/s 682 mmHg 90%
    07:00 -2°C° 0 mm 0 m/s 683 mmHg 90%
    08:00 -1°C° 0.1 mm 0 m/s 683 mmHg 87%
    09:00 +1°C° 0.1 mm 1 m/s 683 mmHg 84%
    10:00 +3°C° 0.1 mm 1 m/s 683 mmHg 81%
    11:00 +3°C° 0.1 mm 1 m/s 683 mmHg 81%
    12:00 +3°C° 0.1 mm 1 m/s 683 mmHg 81%
    13:00 +4°C° 0.1 mm 1 m/s 683 mmHg 81%
    14:00 +4°C° 0.1 mm 1 m/s 683 mmHg 82%
    15:00 +4°C° 0.1 mm 1 m/s 683 mmHg 82%
    16:00 +4°C° 0.1 mm 1 m/s 683 mmHg 83%
    17:00 +2°C° 0 mm 1 m/s 683 mmHg 87%
    18:00 +1°C° 0 mm 1 m/s 683 mmHg 91%
    19:00 -1°C° 0 mm 0 m/s 683 mmHg 95%
    20:00 -1°C° 0 mm 0 m/s 683 mmHg 95%
    21:00 -1°C° 0 mm 1 m/s 684 mmHg 95%
    22:00 -1°C° 0 mm 1 m/s 684 mmHg 94%
    23:00 -2°C° 0 mm 1 m/s 684 mmHg 94%

    28 Março, Quinta-feira

    Tempo Temperatura Precipitação Vento Pressão Humidade
    00:00 -2°C° 0 mm 1 m/s 684 mmHg 93%
    01:00 -2°C° 0 mm 1 m/s 684 mmHg 92%
    02:00 -2°C° 0 mm 1 m/s 684 mmHg 92%
    03:00 -2°C° 0 mm 1 m/s 684 mmHg 91%
    04:00 -2°C° 0 mm 1 m/s 684 mmHg 90%
    05:00 -2°C° 0 mm 1 m/s 684 mmHg 89%
    06:00 -1°C° 0 mm 1 m/s 684 mmHg 87%
    07:00 -1°C° 0 mm 1 m/s 685 mmHg 85%
    08:00 +1°C° 0 mm 1 m/s 685 mmHg 82%
    09:00 +3°C° 0 mm 1 m/s 685 mmHg 78%
    10:00 +6°C° 0 mm 1 m/s 685 mmHg 75%
    11:00 +6°C° 0 mm 1 m/s 685 mmHg 75%
    12:00 +7°C° 0 mm 1 m/s 684 mmHg 74%
    13:00 +8°C° 0 mm 1 m/s 684 mmHg 74%
    14:00 +7°C° 0 mm 1 m/s 684 mmHg 77%
    15:00 +7°C° 0 mm 1 m/s 683 mmHg 80%
    16:00 +7°C° 0 mm 1 m/s 683 mmHg 82%
    17:00 +5°C° 0 mm 1 m/s 683 mmHg 86%
    18:00 +4°C° 0 mm 1 m/s 683 mmHg 91%
    19:00 +2°C° 0 mm 0 m/s 683 mmHg 95%
    20:00 +2°C° 0 mm 1 m/s 684 mmHg 95%
    21:00 +2°C° 0 mm 1 m/s 684 mmHg 94%
    22:00 +1°C° 0 mm 1 m/s 684 mmHg 94%
    23:00 +1°C° 0 mm 1 m/s 684 mmHg 93%

    29 Março, Sexta-feira

    Tempo Temperatura Precipitação Vento Pressão Humidade
    00:00 +1°C° 0 mm 1 m/s 684 mmHg 92%
    01:00 0°C° 0 mm 1 m/s 684 mmHg 91%
    02:00 0°C° 0 mm 1 m/s 684 mmHg 90%
    03:00 0°C° 0 mm 1 m/s 684 mmHg 89%
    04:00 0°C° 0 mm 1 m/s 684 mmHg 88%
    05:00 +1°C° 0 mm 1 m/s 684 mmHg 87%
    06:00 +1°C° 0 mm 1 m/s 684 mmHg 85%
    07:00 +1°C° 0 mm 1 m/s 684 mmHg 84%
    08:00 +4°C° 0 mm 1 m/s 685 mmHg 78%
    09:00 +6°C° 0 mm 1 m/s 685 mmHg 73%
    10:00 +8°C° 0 mm 0 m/s 685 mmHg 67%
    11:00 +9°C° 0 mm 1 m/s 685 mmHg 66%
    12:00 +10°C° 0 mm 1 m/s 685 mmHg 64%
    13:00 +11°C° 0 mm 1 m/s 685 mmHg 63%
    14:00 +10°C° 0 mm 1 m/s 684 mmHg 66%
    15:00 +10°C° 0 mm 1 m/s 684 mmHg 68%
    16:00 +10°C° 0 mm 1 m/s 683 mmHg 71%
    17:00 +8°C° 0 mm 1 m/s 683 mmHg 78%
    18:00 +4°C° 0 mm 0 m/s 683 mmHg 85%
    19:00 +2°C° 0 mm 0 m/s 683 mmHg 92%
    20:00 +3°C° 0 mm 1 m/s 683 mmHg 91%
    21:00 +3°C° 0 mm 1 m/s 683 mmHg 90%
    22:00 +3°C° 0 mm 1 m/s 684 mmHg 89%
    23:00 +2°C° 0 mm 1 m/s 684 mmHg 88%
    Mostrar mais